Location: Songkhla
(7.2000°N, 100.6000°E)
Time: 06:47:33
(UTC+07:00)

SO-50 - Visible Passes

Search period start: 28 July 2021 00:00
Search period end: 07 August 2021 00:00
Orbit: 611 x 674 km, 64.6° (Epoch: 27 July)

Date Brightness Start Highest point End Pass type
(mag) Time Alt. Az. Time Alt. Az. Time Alt. Az.
28 Jul ? 05:05:48 10° NNE 05:09:29 22° ENE 05:13:10 10° ESE visible
28 Jul ? 19:02:38 10° WSW 19:05:55 20° WNW 19:09:12 10° NNW visible
29 Jul ? 05:29:33 10° NNW 05:34:18 71° ENE 05:39:05 10° SSE visible
30 Jul ? 04:16:35 10° NE 04:18:47 13° ENE 04:21:01 10° E visible
31 Jul ? 04:39:12 10° N 04:43:40 41° ENE 04:48:10 10° SE visible
01 Aug ? 05:03:46 10° NNW 05:08:27 60° WSW 05:13:10 10° S visible
02 Aug ? 03:49:10 10° NNE 03:53:01 24° ENE 03:56:53 10° ESE visible
02 Aug ? 05:29:54 10° WNW 05:33:12 19° WSW 05:36:30 10° SSW visible
03 Aug ? 04:20:44 24° SSE 04:20:44 24° SSE 04:22:37 10° SSE visible
